Time,TemperatureF,DewpointF,PressureIn,WindDirection,WindDirectionDegrees,WindSpeedMPH,WindSpeedGustMPH,Humidity,HourlyPrecipIn,Conditions,Clouds,dailyrainin,SoftwareType,DateUTC
2013-04-29 00:00:00,44.8,34.9,30.16,SSE,162,0.0,0.0,68,0.00,CLR,,0.00,WeatherDisplay:10.37,2013-04-29 04:00:00,
2013-04-29 00:01:00,44.6,34.7,30.16,SSE,158,0.0,0.0,68,0.00,CLR,,0.00,WeatherDisplay:10.37,2013-04-29 04:01:00,
2013-04-29 00:02:00,44.6,34.7,30.16,SSE,158,0.0,0.0,68,0.00,CLR,,0.00,WeatherDisplay:10.37,2013-04-29 04:02:00,
2013-04-29 00:07:00,44.6,34.7,30.16,NW,315,0.0,0.0,68,0.00,CLR,,0.00,WeatherDisplay:10.37,2013-04-29 04:07:00,
2013-04-29 00:12:00,44.4,34.9,30.16,West,270,0.0,0.0,69,0.00,CLR,,0.00,WeatherDisplay:10.37,2013-04-29 04:12:00,
2013-04-29 00:17:00,44.6,35.1,30.17,NNW,338,0.0,0.0,69,0.00,CLR,,0.00,WeatherDisplay:10.37,2013-04-29 04:17:00,
2013-04-29 00:22:00,45.1,35.2,30.17,ENE,68,0.0,0.0,68,0.00,CLR,,0.00,WeatherDisplay:10.37,2013-04-29 04:22:00,
2013-04-29 00:27:00,44.8,35.2,30.17,South,180,0.0,0.0,69,0.00,CLR,,0.00,WeatherDisplay:10.37,2013-04-29 04:27:00,
2013-04-29 00:32:00,44.6,35.1,30.17,ESE,112,0.0,0.0,69,0.00,CLR,,0.00,WeatherDisplay:10.37,2013-04-29 04:32:00,
2013-04-29 00:37:00,44.4,34.1,30.17,ESE,112,0.0,0.0,67,0.00,CLR,,0.00,WeatherDisplay:10.37,2013-04-29 04:37:00,
2013-04-29 00:42:00,44.2,33.9,30.16,ESE,112,0.0,0.0,67,0.00,CLR,,0.00,WeatherDisplay:10.37,2013-04-29 04:42:00,
2013-04-29 00:47:00,44.1,34.2,30.16,ESE,112,0.0,0.0,68,0.00,CLR,,0.00,WeatherDisplay:10.37,2013-04-29 04:47:00,
2013-04-29 00:52:00,44.1,33.8,30.16,ESE,112,0.0,0.0,67,0.00,CLR,,0.00,WeatherDisplay:10.37,2013-04-29 04:52:00,
2013-04-29 00:57:00,44.2,34.3,30.16,ESE,112,0.0,0.0,68,0.00,CLR,,0.00,WeatherDisplay:10.37,2013-04-29 04:57:00,
2013-04-29 01:02:00,44.1,34.6,30.16,ESE,112,0.0,0.0,69,0.00,CLR,,0.00,WeatherDisplay:10.37,2013-04-29 05:02:00,
2013-04-29 01:07:00,44.1,34.6,30.16,ESE,112,0.0,0.0,69,0.00,CLR,,0.00,WeatherDisplay:10.37,2013-04-29 05:07:00,
2013-04-29 01:12:00,44.1,33.5,30.16,ESE,112,0.0,0.0,66,0.00,CLR,,0.00,WeatherDisplay:10.37,2013-04-29 05:12:00,
2013-04-29 01:17:00,44.1,33.5,30.17,ESE,112,0.0,0.0,66,0.00,CLR,,0.00,WeatherDisplay:10.37,2013-04-29 05:17:00,
2013-04-29 01:22:00,44.1,32.7,30.17,South,180,0.0,0.0,64,0.00,CLR,,0.00,WeatherDisplay:10.37,2013-04-29 05:22:00,
2013-04-29 01:27:00,44.1,32.7,30.16,South,180,0.0,0.0,64,0.00,CLR,,0.00,WeatherDisplay:10.37,2013-04-29 05:27:00,
2013-04-29 01:32:00,44.1,32.7,30.16,SSE,158,0.0,0.0,64,0.00,CLR,,0.00,WeatherDisplay:10.37,2013-04-29 05:32:00,
2013-04-29 01:37:00,43.9,32.5,30.16,South,180,0.0,0.0,64,0.00,CLR,,0.00,WeatherDisplay:10.37,2013-04-29 05:37:00,
2013-04-29 01:43:00,43.5,32.1,30.16,SW,225,0.0,0.0,64,0.00,CLR,,0.00,WeatherDisplay:10.37,2013-04-29 05:43:00,
2013-04-29 01:48:00,43.5,32.1,30.16,WSW,248,0.0,0.0,64,0.00,CLR,,0.00,WeatherDisplay:10.37,2013-04-29 05:48:00,
2013-04-29 01:53:00,43.5,32.5,30.16,WNW,292,0.0,0.0,65,0.00,CLR,,0.00,WeatherDisplay:10.37,2013-04-29 05:53:00,
2013-04-29 01:58:00,43.3,31.9,30.16,West,270,0.0,0.0,64,0.00,CLR,,0.00,WeatherDisplay:10.37,2013-04-29 05:58:00,
2013-04-29 02:03:00,43.2,31.4,30.16,SE,135,0.0,0.0,63,0.00,CLR,,0.00,WeatherDisplay:10.37,2013-04-29 06:03:00,
2013-04-29 02:08:00,43.0,32.4,30.16,ESE,112,0.0,0.0,66,0.00,CLR,,0.00,WeatherDisplay:10.37,2013-04-29 06:08:00,
2013-04-29 02:13:00,43.0,33.2,30.16,ESE,112,0.0,0.0,68,0.00,CLR,,0.00,WeatherDisplay:10.37,2013-04-29 06:13:00,
2013-04-29 02:18:00,43.0,32.4,30.15,ESE,112,0.0,0.0,66,0.00,CLR,,0.00,WeatherDisplay:10.37,2013-04-29 06:18:00,
2013-04-29 02:23:00,43.0,32.4,30.15,South,180,0.0,0.0,66,0.00,CLR,,0.00,WeatherDisplay:10.37,2013-04-29 06:23:00,
2013-04-29 02:28:00,42.6,32.0,30.16,South,180,0.0,0.0,66,0.00,CLR,,0.00,WeatherDisplay:10.37,2013-04-29 06:28:00,
2013-04-29 02:33:00,42.6,31.7,30.16,South,180,0.0,0.0,65,0.00,CLR,,0.00,WeatherDisplay:10.37,2013-04-29 06:33:00,
2013-04-29 02:38:00,42.4,31.5,30.15,SSE,158,0.0,0.0,65,0.00,CLR,,0.00,WeatherDisplay:10.37,2013-04-29 06:38:00,
2013-04-29 02:43:00,42.1,31.6,30.15,West,270,0.0,0.0,66,0.00,CLR,,0.00,WeatherDisplay:10.37,2013-04-29 06:43:00,
2013-04-29 02:48:00,42.1,31.6,30.15,SSE,158,0.0,0.0,66,0.00,CLR,,0.00,WeatherDisplay:10.37,2013-04-29 06:48:00,
2013-04-29 02:53:00,41.9,31.7,30.15,SE,135,0.0,0.0,67,0.00,CLR,,0.00,WeatherDisplay:10.37,2013-04-29 06:53:00,
2013-04-29 02:58:00,41.9,33.2,30.15,SE,135,0.0,0.0,71,0.00,CLR,,0.00,WeatherDisplay:10.37,2013-04-29 06:58:00,
2013-04-29 03:03:00,41.9,33.2,30.15,SE,135,0.0,0.0,71,0.00,CLR,,0.00,WeatherDisplay:10.37,2013-04-29 07:03:00,
2013-04-29 03:08:00,41.9,32.8,30.15,SE,135,0.0,0.0,70,0.00,CLR,,0.00,WeatherDisplay:10.37,2013-04-29 07:08:00,
2013-04-29 03:13:00,41.9,32.5,30.15,SE,135,0.0,0.0,69,0.00,CLR,,0.00,WeatherDisplay:10.37,2013-04-29 07:13:00,
2013-04-29 03:18:00,41.5,32.4,30.15,SE,135,0.0,0.0,70,0.00,CLR,,0.00,WeatherDisplay:10.37,2013-04-29 07:18:00,
2013-04-29 03:23:00,41.5,33.1,30.15,SE,135,0.0,0.0,72,0.00,CLR,,0.00,WeatherDisplay:10.37,2013-04-29 07:23:00,
2013-04-29 03:28:00,41.5,32.4,30.14,SE,135,0.0,0.0,70,0.00,CLR,,0.00,WeatherDisplay:10.37,2013-04-29 07:28:00,
2013-04-29 03:33:00,41.5,32.1,30.14,SE,135,0.0,0.0,69,0.00,CLR,,0.00,WeatherDisplay:10.37,2013-04-29 07:33:00,
2013-04-29 03:38:00,41.4,32.7,30.14,SE,135,0.0,0.0,71,0.00,CLR,,0.00,WeatherDisplay:10.37,2013-04-29 07:38:00,
2013-04-29 03:43:00,41.2,32.5,30.14,SE,135,0.0,0.0,71,0.00,CLR,,0.00,WeatherDisplay:10.37,2013-04-29 07:43:00,
2013-04-29 03:48:00,41.2,32.5,30.14,SE,135,0.0,0.0,71,0.00,CLR,,0.00,WeatherDisplay:10.37,2013-04-29 07:48:00,
2013-04-29 03:53:00,41.2,32.2,30.14,SE,135,0.0,0.0,70,0.00,CLR,,0.00,WeatherDisplay:10.37,2013-04-29 07:53:00,
2013-04-29 03:58:00,41.0,32.0,30.14,SE,135,0.0,0.0,70,0.00,CLR,,0.00,WeatherDisplay:10.37,2013-04-29 07:58:00,
2013-04-29 04:03:00,41.0,32.3,30.14,SE,135,0.0,0.0,71,0.00,CLR,,0.00,WeatherDisplay:10.37,2013-04-29 08:03:00,
2013-04-29 04:08:00,41.0,32.3,30.14,SE,135,0.0,0.0,71,0.00,CLR,,0.00,WeatherDisplay:10.37,2013-04-29 08:08:00,
2013-04-29 04:13:00,41.0,32.3,30.15,SE,135,0.0,0.0,71,0.00,CLR,,0.00,WeatherDisplay:10.37,2013-04-29 08:13:00,
2013-04-29 04:18:00,40.8,32.1,30.15,SE,135,0.0,0.0,71,0.00,CLR,,0.00,WeatherDisplay:10.37,2013-04-29 08:18:00,
2013-04-29 04:23:00,40.6,31.6,30.15,SE,135,0.0,0.0,70,0.00,CLR,,0.00,WeatherDisplay:10.37,2013-04-29 08:23:00,
2013-04-29 04:28:00,40.5,32.5,30.14,SE,135,0.0,0.0,73,0.00,CLR,,0.00,WeatherDisplay:10.37,2013-04-29 08:28:00,
2013-04-29 04:33:00,40.5,32.9,30.14,SE,135,0.0,0.0,74,0.00,CLR,,0.00,WeatherDisplay:10.37,2013-04-29 08:33:00,
2013-04-29 04:38:00,40.3,32.7,30.14,SE,135,0.0,0.0,74,0.00,CLR,,0.00,WeatherDisplay:10.37,2013-04-29 08:38:00,
2013-04-29 04:43:00,40.3,32.3,30.14,SE,135,0.0,0.0,73,0.00,CLR,,0.00,WeatherDisplay:10.37,2013-04-29 08:43:00,
2013-04-29 04:48:00,40.3,32.3,30.14,SE,135,0.0,0.0,73,0.00,CLR,,0.00,WeatherDisplay:10.37,2013-04-29 08:48:00,
2013-04-29 04:53:00,40.1,32.8,30.15,SE,135,0.0,0.0,75,0.00,CLR,,0.00,WeatherDisplay:10.37,2013-04-29 08:53:00,
2013-04-29 04:58:00,40.1,33.1,30.15,SE,135,0.0,0.0,76,0.00,CLR,,0.00,WeatherDisplay:10.37,2013-04-29 08:58:00,
2013-04-29 05:03:00,40.1,33.1,30.14,SE,135,0.0,0.0,76,0.00,CLR,,0.00,WeatherDisplay:10.37,2013-04-29 09:03:00,
2013-04-29 05:08:00,39.9,33.3,30.14,SE,135,0.0,0.0,77,0.00,CLR,,0.00,WeatherDisplay:10.37,2013-04-29 09:08:00,
2013-04-29 05:13:00,39.9,33.9,30.15,SE,135,0.0,0.0,79,0.00,CLR,,0.00,WeatherDisplay:10.37,2013-04-29 09:13:00,
2013-04-29 05:18:00,39.9,33.6,30.15,West,270,0.0,0.0,78,0.00,CLR,,0.00,WeatherDisplay:10.37,2013-04-29 09:18:00,
2013-04-29 05:23:00,39.9,33.9,30.15,West,270,0.0,0.0,79,0.00,CLR,,0.00,WeatherDisplay:10.37,2013-04-29 09:23:00,
2013-04-29 05:28:00,40.1,34.4,30.15,WSW,248,0.0,0.0,80,0.00,CLR,,0.00,WeatherDisplay:10.37,2013-04-29 09:28:00,
2013-04-29 05:33:00,40.1,34.4,30.15,West,270,0.0,0.0,80,0.00,CLR,,0.00,WeatherDisplay:10.37,2013-04-29 09:33:00,
2013-04-29 05:38:00,40.3,34.6,30.15,East,90,0.0,0.0,80,0.00,CLR,,0.00,WeatherDisplay:10.37,2013-04-29 09:38:00,
2013-04-29 05:43:00,40.3,34.6,30.15,SE,135,0.0,0.0,80,0.00,CLR,,0.00,WeatherDisplay:10.37,2013-04-29 09:43:00,
2013-04-29 05:48:00,40.3,34.6,30.15,SSE,158,0.0,0.0,80,0.00,CLR,,0.00,WeatherDisplay:10.37,2013-04-29 09:48:00,
2013-04-29 05:53:00,40.5,34.8,30.15,South,180,0.0,0.0,80,0.00,CLR,,0.00,WeatherDisplay:10.37,2013-04-29 09:53:00,
2013-04-29 05:58:00,40.6,34.9,30.15,South,180,0.0,0.0,80,0.00,CLR,,0.00,WeatherDisplay:10.37,2013-04-29 09:58:00,
2013-04-29 06:03:00,40.8,35.4,30.16,South,180,0.0,0.0,81,0.00,CLR,,0.00,WeatherDisplay:10.37,2013-04-29 10:03:00,
2013-04-29 06:08:00,41.0,35.6,30.16,South,180,0.0,0.0,81,0.00,CLR,,0.00,WeatherDisplay:10.37,2013-04-29 10:08:00,
2013-04-29 06:13:00,41.7,36.6,30.16,NE,45,0.0,0.0,82,0.00,CLR,,0.00,WeatherDisplay:10.37,2013-04-29 10:13:00,
2013-04-29 06:18:00,42.4,37.3,30.16,SSE,158,0.0,0.0,82,0.00,CLR,,0.00,WeatherDisplay:10.37,2013-04-29 10:18:00,
2013-04-29 06:23:00,43.2,37.8,30.16,East,90,0.0,0.0,81,0.00,CLR,,0.00,WeatherDisplay:10.37,2013-04-29 10:23:00,
2013-04-29 06:28:00,43.7,37.9,30.16,ESE,112,0.0,0.0,80,0.00,CLR,,0.00,WeatherDisplay:10.37,2013-04-29 10:28:00,
2013-04-29 06:33:00,43.7,37.6,30.16,ESE,112,0.0,0.0,79,0.00,CLR,,0.00,WeatherDisplay:10.37,2013-04-29 10:33:00,
2013-04-29 06:38:00,43.9,37.5,30.16,ESE,112,0.0,0.0,78,0.00,CLR,,0.00,WeatherDisplay:10.37,2013-04-29 10:38:00,
2013-04-29 06:43:00,44.1,37.7,30.16,East,90,0.0,0.0,78,0.00,CLR,,0.00,WeatherDisplay:10.37,2013-04-29 10:43:00,
2013-04-29 06:48:00,44.2,37.8,30.16,East,90,0.0,0.0,78,0.00,CLR,,0.00,WeatherDisplay:10.37,2013-04-29 10:48:00,
2013-04-29 06:53:00,44.4,38.0,30.16,East,90,0.0,0.0,78,0.00,CLR,,0.00,WeatherDisplay:10.37,2013-04-29 10:53:00,
2013-04-29 06:58:00,44.8,38.4,30.16,ESE,112,0.0,0.0,78,0.00,CLR,,0.00,WeatherDisplay:10.37,2013-04-29 10:58:00,
2013-04-29 07:03:00,45.0,38.6,30.16,East,90,0.0,0.0,78,0.00,CLR,,0.00,WeatherDisplay:10.37,2013-04-29 11:03:00,
2013-04-29 07:08:00,45.5,39.0,30.16,East,90,0.0,0.0,78,0.00,CLR,,0.00,WeatherDisplay:10.37,2013-04-29 11:08:00,
2013-04-29 07:13:00,46.0,39.5,30.16,East,90,0.0,0.0,78,0.00,CLR,,0.00,WeatherDisplay:10.37,2013-04-29 11:13:00,
2013-04-29 07:18:00,46.6,40.1,30.17,ESE,112,1.2,0.0,78,0.00,CLR,,0.00,WeatherDisplay:10.37,2013-04-29 11:18:00,
2013-04-29 07:23:00,47.1,40.3,30.17,ESE,112,1.7,1.7,77,0.00,CLR,,0.00,WeatherDisplay:10.37,2013-04-29 11:23:00,
2013-04-29 07:28:00,47.7,40.5,30.17,East,90,0.0,0.0,76,0.00,CLR,,0.00,WeatherDisplay:10.37,2013-04-29 11:28:00,
2013-04-29 07:33:00,48.2,41.0,30.17,ESE,112,1.2,1.3,76,0.00,CLR,,0.00,WeatherDisplay:10.37,2013-04-29 11:33:00,
2013-04-29 07:39:00,48.9,41.3,30.17,SSE,158,1.2,1.2,75,0.00,CLR,,0.00,WeatherDisplay:10.37,2013-04-29 11:39:00,
2013-04-29 07:44:00,49.5,41.6,30.17,SE,135,1.2,0.0,74,0.00,CLR,,0.00,WeatherDisplay:10.37,2013-04-29 11:44:00,
2013-04-29 07:49:00,49.8,41.5,30.17,SSE,158,2.3,2.4,73,0.00,CLR,,0.00,WeatherDisplay:10.37,2013-04-29 11:49:00,
2013-04-29 07:54:00,50.2,41.5,30.17,SE,135,3.5,3.5,72,0.00,CLR,,0.00,WeatherDisplay:10.37,2013-04-29 11:54:00,
2013-04-29 07:59:00,50.5,41.8,30.17,SSE,158,1.2,1.2,72,0.00,CLR,,0.00,WeatherDisplay:10.37,2013-04-29 11:59:00,
2013-04-29 08:04:00,51.1,42.0,30.17,SSE,158,0.0,0.0,71,0.00,CLR,,0.00,WeatherDisplay:10.37,2013-04-29 12:04:00,
2013-04-29 08:09:00,51.6,42.1,30.17,ESE,112,0.0,0.0,70,0.00,CLR,,0.00,WeatherDisplay:10.37,2013-04-29 12:09:00,
2013-04-29 08:14:00,52.7,42.4,30.17,ESE,112,0.0,0.0,68,0.00,CLR,,0.00,WeatherDisplay:10.37,2013-04-29 12:14:00,
2013-04-29 08:19:00,52.5,42.2,30.17,ENE,68,2.3,2.3,68,0.00,CLR,,0.00,WeatherDisplay:10.37,2013-04-29 12:19:00,
2013-04-29 08:24:00,52.7,42.0,30.17,South,180,2.3,2.3,67,0.00,CLR,,0.00,WeatherDisplay:10.37,2013-04-29 12:24:00,
2013-04-29 08:29:00,53.4,42.3,30.17,SE,135,3.7,3.7,66,0.00,CLR,,0.00,WeatherDisplay:10.37,2013-04-29 12:29:00,
2013-04-29 08:34:00,53.8,42.3,30.17,West,270,3.5,3.5,65,0.00,CLR,,0.00,WeatherDisplay:10.37,2013-04-29 12:34:00,
2013-04-29 08:39:00,54.5,42.6,30.17,South,180,2.3,2.3,64,0.00,CLR,,0.00,WeatherDisplay:10.37,2013-04-29 12:39:00,
2013-04-29 08:44:00,54.9,42.5,30.17,WNW,292,4.6,4.6,63,0.00,CLR,,0.00,WeatherDisplay:10.37,2013-04-29 12:44:00,
2013-04-29 08:49:00,56.1,42.8,30.17,ENE,68,2.3,2.3,61,0.00,CLR,,0.00,WeatherDisplay:10.37,2013-04-29 12:49:00,
2013-04-29 08:54:00,56.1,42.4,30.17,ESE,112,3.5,3.5,60,0.00,CLR,,0.00,WeatherDisplay:10.37,2013-04-29 12:54:00,
2013-04-29 08:59:00,56.1,42.4,30.17,South,180,2.7,2.7,60,0.00,CLR,,0.00,WeatherDisplay:10.37,2013-04-29 12:59:00,
2013-04-29 09:04:00,56.3,42.6,30.16,WSW,248,4.6,4.6,60,0.00,CLR,,0.00,WeatherDisplay:10.37,2013-04-29 13:04:00,
2013-04-29 09:09:00,56.5,42.8,30.16,SE,135,4.6,4.6,60,0.00,CLR,,0.00,WeatherDisplay:10.37,2013-04-29 13:09:00,
2013-04-29 09:14:00,56.5,42.8,30.16,SSE,158,1.2,1.4,60,0.00,CLR,,0.00,WeatherDisplay:10.37,2013-04-29 13:14:00,
2013-04-29 09:19:00,57.2,43.0,30.16,SE,135,4.6,4.6,59,0.00,CLR,,0.00,WeatherDisplay:10.37,2013-04-29 13:19:00,
2013-04-29 09:24:00,58.1,43.4,30.16,SSE,158,3.5,3.5,58,0.00,CLR,,0.00,WeatherDisplay:10.37,2013-04-29 13:24:00,
2013-04-29 09:29:00,58.6,43.4,30.16,SSE,158,3.5,3.5,57,0.00,CLR,,0.00,WeatherDisplay:10.37,2013-04-29 13:29:00,
2013-04-29 09:34:00,59.0,42.8,30.16,South,180,4.6,4.6,55,0.00,CLR,,0.00,WeatherDisplay:10.37,2013-04-29 13:34:00,
2013-04-29 09:39:00,59.0,42.8,30.16,South,180,4.6,4.6,55,0.00,CLR,,0.00,WeatherDisplay:10.37,2013-04-29 13:39:00,
2013-04-29 09:44:00,59.0,43.3,30.16,South,180,5.8,5.8,56,0.00,CLR,,0.00,WeatherDisplay:10.37,2013-04-29 13:44:00,
2013-04-29 09:49:00,58.5,42.8,30.16,ESE,112,4.6,4.6,56,0.00,CLR,,0.00,WeatherDisplay:10.37,2013-04-29 13:49:00,
2013-04-29 09:54:00,59.4,43.2,30.16,South,180,2.3,2.3,55,0.00,CLR,,0.00,WeatherDisplay:10.37,2013-04-29 13:54:00,
2013-04-29 09:59:00,59.2,43.0,30.16,SE,135,2.3,2.3,55,0.00,CLR,,0.00,WeatherDisplay:10.37,2013-04-29 13:59:00,
2013-04-29 10:04:00,60.1,43.4,30.16,SSE,158,5.3,5.3,54,0.00,CLR,,0.00,WeatherDisplay:10.37,2013-04-29 14:04:00,
2013-04-29 10:09:00,59.2,43.0,30.16,ENE,68,2.3,2.3,55,0.00,CLR,,0.00,WeatherDisplay:10.37,2013-04-29 14:09:00,
2013-04-29 10:14:00,60.8,43.6,30.16,East,90,4.6,4.6,53,0.00,CLR,,0.00,WeatherDisplay:10.37,2013-04-29 14:14:00,
2013-04-29 10:19:00,61.5,43.2,30.16,ESE,112,4.2,4.2,51,0.00,CLR,,0.00,WeatherDisplay:10.37,2013-04-29 14:19:00,
2013-04-29 10:24:00,61.9,43.6,30.16,South,180,3.7,3.7,51,0.00,CLR,,0.00,WeatherDisplay:10.37,2013-04-29 14:24:00,
2013-04-29 10:29:00,62.4,43.5,30.16,ESE,112,4.7,4.7,50,0.00,CLR,,0.00,WeatherDisplay:10.37,2013-04-29 14:29:00,
2013-04-29 10:30:00,38.0,36.2,30.18,WSW,256,0.0,0.0,93,0.03,RA,,0.03,WeatherDisplay:10.37,2013-04-29 14:30:00,
2013-04-29 10:34:00,63.3,44.3,30.16,ESE,112,4.2,4.2,50,0.00,CLR,,0.00,WeatherDisplay:10.37,2013-04-29 14:34:00,
2013-04-29 10:35:00,38.0,36.2,30.18,WNW,294,0.0,0.0,93,0.03,RA,,0.03,WeatherDisplay:10.37,2013-04-29 14:35:00,
2013-04-29 10:39:00,62.8,42.3,30.16,West,270,3.5,3.5,47,0.00,CLR,,0.00,WeatherDisplay:10.37,2013-04-29 14:39:00,
2013-04-29 10:40:00,37.0,35.2,30.18,NW,310,0.0,0.0,93,0.03,CLR,,0.03,WeatherDisplay:10.37,2013-04-29 14:40:00,
2013-04-29 10:44:00,64.8,42.4,30.16,ESE,112,7.3,7.3,44,0.00,CLR,,0.00,WeatherDisplay:10.37,2013-04-29 14:44:00,
2013-04-29 10:45:00,37.0,35.2,30.18,WNW,299,0.0,0.0,93,0.03,CLR,,0.03,WeatherDisplay:10.37,2013-04-29 14:45:00,
2013-04-29 10:49:00,64.8,42.4,30.16,SSE,158,6.9,6.9,44,0.00,CLR,,0.00,WeatherDisplay:10.37,2013-04-29 14:49:00,
2013-04-29 10:50:00,37.0,35.2,30.18,WNW,292,0.0,0.0,93,0.03,CLR,,0.03,WeatherDisplay:10.37,2013-04-29 14:50:00,
2013-04-29 10:54:00,64.9,41.9,30.15,SE,135,6.9,6.9,43,0.00,CLR,,0.00,WeatherDisplay:10.37,2013-04-29 14:54:00,
2013-04-29 10:55:00,37.0,35.2,30.18,WNW,303,0.0,0.0,93,0.03,CLR,,0.03,WeatherDisplay:10.37,2013-04-29 14:55:00,
2013-04-29 10:59:00,65.7,41.3,30.15,SSE,158,5.8,5.9,41,0.00,CLR,,0.00,WeatherDisplay:10.37,2013-04-29 14:59:00,
2013-04-29 11:00:00,37.0,35.2,30.18,NW,315,0.0,0.0,93,0.03,CLR,,0.03,WeatherDisplay:10.37,2013-04-29 15:00:00,
2013-04-29 11:04:00,66.6,42.8,30.15,SE,135,5.8,5.8,42,0.00,CLR,,0.00,WeatherDisplay:10.37,2013-04-29 15:04:00,
2013-04-29 11:05:00,37.0,35.2,30.18,NNW,334,0.0,0.0,93,0.03,CLR,,0.03,WeatherDisplay:10.37,2013-04-29 15:05:00,
2013-04-29 11:09:00,66.2,41.8,30.15,SSE,158,5.8,5.8,41,0.00,CLR,,0.00,WeatherDisplay:10.37,2013-04-29 15:09:00,
2013-04-29 11:10:00,37.0,35.2,30.18,North,10,0.0,0.0,93,0.03,CLR,,0.03,WeatherDisplay:10.37,2013-04-29 15:10:00,
2013-04-29 11:14:00,67.3,42.8,30.14,South,180,6.9,6.9,41,0.00,CLR,,0.00,WeatherDisplay:10.37,2013-04-29 15:14:00,
2013-04-29 11:15:00,37.0,35.4,30.18,NNE,16,0.0,0.0,94,0.03,CLR,,0.03,WeatherDisplay:10.37,2013-04-29 15:15:00,
2013-04-29 11:19:00,66.9,41.8,30.14,SSE,158,6.8,6.8,40,0.00,CLR,,0.00,WeatherDisplay:10.37,2013-04-29 15:19:00,
2013-04-29 11:20:00,37.0,35.4,30.18,NNW,341,0.0,0.0,94,0.03,CLR,,0.03,WeatherDisplay:10.37,2013-04-29 15:20:00,
2013-04-29 11:24:00,66.7,39.6,30.14,South,180,6.9,6.9,37,0.00,CLR,,0.00,WeatherDisplay:10.37,2013-04-29 15:24:00,
2013-04-29 11:25:00,37.0,35.4,30.18,NW,315,0.0,0.0,94,0.03,CLR,,0.03,WeatherDisplay:10.37,2013-04-29 15:25:00,
2013-04-29 11:29:00,66.9,40.5,30.14,West,270,6.9,6.9,38,0.00,CLR,,0.00,WeatherDisplay:10.37,2013-04-29 15:29:00,
2013-04-29 11:30:00,37.0,35.4,30.18,NW,306,0.0,0.0,94,0.00,CLR,,0.03,WeatherDisplay:10.37,2013-04-29 15:30:00,
2013-04-29 11:34:00,67.1,41.3,30.14,NE,45,4.6,4.6,39,0.00,CLR,,0.00,WeatherDisplay:10.37,2013-04-29 15:34:00,
2013-04-29 11:35:00,37.0,35.4,30.18,WNW,294,0.0,0.0,94,0.00,CLR,,0.03,WeatherDisplay:10.37,2013-04-29 15:35:00,
2013-04-29 11:39:00,67.3,42.1,30.14,SE,135,5.8,5.8,40,0.00,CLR,,0.00,WeatherDisplay:10.37,2013-04-29 15:39:00,
2013-04-29 11:40:00,37.0,35.4,30.18,WNW,292,0.0,0.0,94,0.00,CLR,,0.03,WeatherDisplay:10.37,2013-04-29 15:40:00,
2013-04-29 11:44:00,67.8,42.6,30.14,West,270,5.8,5.8,40,0.00,CLR,,0.00,WeatherDisplay:10.37,2013-04-29 15:44:00,
2013-04-29 11:45:00,37.0,35.4,30.18,WNW,292,0.0,0.0,94,0.00,CLR,,0.03,WeatherDisplay:10.37,2013-04-29 15:45:00,
2013-04-29 11:49:00,66.7,42.2,30.14,ENE,68,4.6,4.6,41,0.00,CLR,,0.00,WeatherDisplay:10.37,2013-04-29 15:49:00,
2013-04-29 11:50:00,37.0,35.4,30.18,WNW,292,0.0,0.0,94,0.00,CLR,,0.03,WeatherDisplay:10.37,2013-04-29 15:50:00,
2013-04-29 11:54:00,67.3,43.4,30.14,SSE,158,4.2,4.2,42,0.00,CLR,,0.00,WeatherDisplay:10.37,2013-04-29 15:54:00,
2013-04-29 11:55:00,37.0,35.4,30.18,WNW,292,0.0,0.0,94,0.00,CLR,,0.03,WeatherDisplay:10.37,2013-04-29 15:55:00,
2013-04-29 11:59:00,67.6,42.4,30.14,ESE,112,6.9,6.9,40,0.00,CLR,,0.00,WeatherDisplay:10.37,2013-04-29 15:59:00,
2013-04-29 12:00:00,37.0,35.4,30.18,WNW,292,0.0,0.0,94,0.00,CLR,,0.03,WeatherDisplay:10.37,2013-04-29 16:00:00,
2013-04-29 12:04:00,68.0,43.4,30.13,SSE,158,3.5,3.5,41,0.00,CLR,,0.00,WeatherDisplay:10.37,2013-04-29 16:04:00,
2013-04-29 12:05:00,36.0,34.4,30.18,WNW,292,1.0,0.0,94,0.00,CLR,,0.03,WeatherDisplay:10.37,2013-04-29 16:05:00,
2013-04-29 12:09:00,68.0,44.0,30.13,WNW,292,3.5,3.5,42,0.00,CLR,,0.00,WeatherDisplay:10.37,2013-04-29 16:09:00,
2013-04-29 12:10:00,36.0,34.4,30.18,ESE,112,1.0,0.0,94,0.00,CLR,,0.03,WeatherDisplay:10.37,2013-04-29 16:10:00,
2013-04-29 12:14:00,67.6,43.7,30.13,ESE,112,4.2,4.2,42,0.00,CLR,,0.00,WeatherDisplay:10.37,2013-04-29 16:14:00,
2013-04-29 12:15:00,36.0,34.4,30.18,ESE,115,0.0,0.0,94,0.00,CLR,,0.03,WeatherDisplay:10.37,2013-04-29 16:15:00,
2013-04-29 12:19:00,67.6,44.9,30.13,SE,135,5.8,5.8,44,0.00,CLR,,0.00,WeatherDisplay:10.37,2013-04-29 16:19:00,
2013-04-29 12:20:00,36.0,34.4,30.18,SW,236,0.0,0.0,94,0.00,CLR,,0.03,WeatherDisplay:10.37,2013-04-29 16:20:00,
2013-04-29 12:24:00,68.7,44.7,30.13,ESE,112,5.8,5.8,42,0.00,CLR,,0.00,WeatherDisplay:10.37,2013-04-29 16:24:00,
2013-04-29 12:25:00,36.0,34.4,30.18,West,270,0.0,0.0,94,0.00,CLR,,0.03,WeatherDisplay:10.37,2013-04-29 16:25:00,
2013-04-29 12:29:00,68.0,44.7,30.13,ESE,112,5.8,5.8,43,0.00,CLR,,0.00,WeatherDisplay:10.37,2013-04-29 16:29:00,
2013-04-29 12:30:00,36.0,34.4,30.18,West,261,0.0,0.0,94,0.00,CLR,,0.03,WeatherDisplay:10.37,2013-04-29 16:30:00,
2013-04-29 12:34:00,70.2,45.4,30.13,SSE,158,5.8,5.8,41,0.00,CLR,,0.00,WeatherDisplay:10.37,2013-04-29 16:34:00,
2013-04-29 12:35:00,36.0,34.4,30.18,WSW,250,0.0,0.0,94,0.00,CLR,,0.03,WeatherDisplay:10.37,2013-04-29 16:35:00,
2013-04-29 12:39:00,69.3,45.2,30.12,SSE,158,5.8,5.8,42,0.00,CLR,,0.00,WeatherDisplay:10.37,2013-04-29 16:39:00,
2013-04-29 12:40:00,37.0,35.4,30.18,WSW,248,0.0,0.0,94,0.00,CLR,,0.03,WeatherDisplay:10.37,2013-04-29 16:40:00,
2013-04-29 12:44:00,69.4,45.3,30.12,SSE,158,6.9,6.9,42,0.00,CLR,,0.00,WeatherDisplay:10.37,2013-04-29 16:44:00,
2013-04-29 12:45:00,37.0,35.4,30.18,WSW,248,0.0,0.0,94,0.00,CLR,,0.03,WeatherDisplay:10.37,2013-04-29 16:45:00,
2013-04-29 12:49:00,69.3,45.2,30.11,South,180,6.9,6.9,42,0.00,CLR,,0.00,WeatherDisplay:10.37,2013-04-29 16:49:00,
2013-04-29 12:50:00,37.0,35.4,30.18,WSW,248,0.0,0.0,94,0.00,CLR,,0.03,WeatherDisplay:10.37,2013-04-29 16:50:00,
2013-04-29 12:55:00,68.4,45.0,30.11,SSE,158,3.7,3.7,43,0.00,CLR,,0.00,WeatherDisplay:10.37,2013-04-29 16:55:00,
2013-04-29 13:00:00,68.7,45.3,30.11,SE,135,4.6,4.6,43,0.00,CLR,,0.00,WeatherDisplay:10.37,2013-04-29 17:00:00,
2013-04-29 13:05:00,67.1,45.0,30.12,SSE,158,2.3,2.3,45,0.00,CLR,,0.00,WeatherDisplay:10.37,2013-04-29 17:05:00,
2013-04-29 13:10:00,68.2,46.0,30.12,SSE,158,3.5,3.6,45,0.00,CLR,,0.00,WeatherDisplay:10.37,2013-04-29 17:10:00,
2013-04-29 13:15:00,68.9,46.1,30.11,South,180,6.9,6.9,44,0.00,CLR,,0.00,WeatherDisplay:10.37,2013-04-29 17:15:00,
2013-04-29 13:20:00,67.3,45.2,30.11,South,180,4.6,4.6,45,0.00,CLR,,0.00,WeatherDisplay:10.37,2013-04-29 17:20:00,
2013-04-29 13:25:00,67.3,45.8,30.11,South,180,2.7,2.7,46,0.00,CLR,,0.00,WeatherDisplay:10.37,2013-04-29 17:25:00,
2013-04-29 13:30:00,67.2,45.1,30.11,SE,146,5.0,6.0,45,0.00,CLR,,0.00,WeatherDisplay:10.37,2013-04-29 17:30:00,
2013-04-29 13:35:00,67.3,45.2,30.11,South,180,5.8,5.8,45,0.00,CLR,,0.00,WeatherDisplay:10.37,2013-04-29 17:35:00,
2013-04-29 13:40:00,67.3,45.2,30.11,ESE,112,6.8,6.8,45,0.00,CLR,,0.00,WeatherDisplay:10.37,2013-04-29 17:40:00,
2013-04-29 13:45:00,68.8,46.0,30.11,SE,138,5.0,7.0,44,0.00,CLR,,0.00,WeatherDisplay:10.37,2013-04-29 17:45:00,
2013-04-29 13:50:00,69.5,45.4,30.11,SE,136,5.0,8.0,42,0.00,CLR,,0.00,WeatherDisplay:10.37,2013-04-29 17:50:00,
2013-04-29 13:55:00,69.8,45.6,30.11,SSE,167,6.0,9.0,42,0.00,CLR,,0.00,WeatherDisplay:10.37,2013-04-29 17:55:00,
2013-04-29 14:00:00,71.6,46.0,30.11,South,180,5.8,5.8,40,0.00,CLR,,0.00,WeatherDisplay:10.37,2013-04-29 18:00:00,
2013-04-29 14:05:00,70.2,44.7,30.10,SSE,158,5.8,5.8,40,0.00,CLR,,0.00,WeatherDisplay:10.37,2013-04-29 18:05:00,
2013-04-29 14:10:00,70.7,44.5,30.10,ESE,112,5.8,6.0,39,0.00,CLR,,0.00,WeatherDisplay:10.37,2013-04-29 18:10:00,
2013-04-29 14:15:00,69.8,44.4,30.10,South,180,6.9,6.9,40,0.00,CLR,,0.00,WeatherDisplay:10.37,2013-04-29 18:15:00,
2013-04-29 14:20:00,69.4,44.0,30.10,SE,135,6.9,6.9,40,0.00,CLR,,0.00,WeatherDisplay:10.37,2013-04-29 18:20:00,
2013-04-29 14:25:00,70.0,44.6,30.10,SSE,158,6.3,6.3,40,0.00,CLR,,0.00,WeatherDisplay:10.37,2013-04-29 18:25:00,
2013-04-29 14:30:00,69.4,42.7,30.10,South,180,6.9,6.9,38,0.00,CLR,,0.00,WeatherDisplay:10.37,2013-04-29 18:30:00,
2013-04-29 14:35:00,71.1,43.5,30.10,South,180,6.3,6.3,37,0.00,CLR,,0.00,WeatherDisplay:10.37,2013-04-29 18:35:00,
2013-04-29 14:40:00,69.8,43.0,30.10,ESE,112,8.1,8.1,38,0.00,CLR,,0.00,WeatherDisplay:10.37,2013-04-29 18:40:00,
2013-04-29 14:45:00,69.4,42.7,30.10,SSE,158,10.4,10.4,38,0.00,CLR,,0.00,WeatherDisplay:10.37,2013-04-29 18:45:00,
2013-04-29 14:50:00,70.2,43.4,30.10,ESE,112,4.7,4.7,38,0.00,CLR,,0.00,WeatherDisplay:10.37,2013-04-29 18:50:00,
2013-04-29 14:55:00,68.4,41.8,30.10,East,90,11.5,11.5,38,0.00,CLR,,0.00,WeatherDisplay:10.37,2013-04-29 18:55:00,
2013-04-29 15:00:00,69.8,43.0,30.10,SSE,158,9.4,9.4,38,0.00,CLR,,0.00,WeatherDisplay:10.37,2013-04-29 19:00:00,
2013-04-29 15:05:00,69.3,42.6,30.09,South,180,7.3,7.3,38,0.00,CLR,,0.00,WeatherDisplay:10.37,2013-04-29 19:05:00,
2013-04-29 15:10:00,70.0,43.2,30.09,ESE,112,5.8,5.8,38,0.00,CLR,,0.00,WeatherDisplay:10.37,2013-04-29 19:10:00,
2013-04-29 15:15:00,69.6,42.2,30.09,SSE,158,8.1,8.1,37,0.00,CLR,,0.00,WeatherDisplay:10.37,2013-04-29 19:15:00,
2013-04-29 15:20:00,69.8,43.0,30.09,South,180,11.5,11.5,38,0.00,CLR,,0.00,WeatherDisplay:10.37,2013-04-29 19:20:00,
2013-04-29 15:25:00,69.4,42.0,30.09,South,180,13.8,13.8,37,0.00,CLR,,0.00,WeatherDisplay:10.37,2013-04-29 19:25:00,
2013-04-29 15:30:00,68.9,42.2,30.09,South,180,3.5,3.5,38,0.00,CLR,,0.00,WeatherDisplay:10.37,2013-04-29 19:30:00,
2013-04-29 15:35:00,69.1,42.4,30.09,West,270,8.1,8.1,38,0.00,CLR,,0.00,WeatherDisplay:10.37,2013-04-29 19:35:00,
2013-04-29 15:40:00,69.1,42.4,30.09,South,180,5.8,5.8,38,0.00,CLR,,0.00,WeatherDisplay:10.37,2013-04-29 19:40:00,
2013-04-29 15:45:00,69.6,42.9,30.09,SSE,158,5.8,5.8,38,0.00,CLR,,0.00,WeatherDisplay:10.37,2013-04-29 19:45:00,
2013-04-29 15:50:00,69.6,42.9,30.08,SE,135,9.2,9.2,38,0.00,CLR,,0.00,WeatherDisplay:10.37,2013-04-29 19:50:00,
2013-04-29 15:55:00,68.7,42.1,30.08,SSE,158,10.4,10.4,38,0.00,CLR,,0.00,WeatherDisplay:10.37,2013-04-29 19:55:00,
2013-04-29 16:00:00,68.9,42.2,30.08,SSE,158,4.6,4.6,38,0.00,CLR,,0.00,WeatherDisplay:10.37,2013-04-29 20:00:00,
2013-04-29 16:05:00,53.0,42.3,30.21,ESE,103,6.0,7.0,67,0.00,CLR,,0.00,WeatherDisplay:10.37,2013-04-29 20:05:00,
2013-04-29 16:07:00,68.5,41.2,30.08,ESE,112,10.4,10.4,37,0.00,CLR,,0.00,WeatherDisplay:10.37,2013-04-29 20:07:00,
2013-04-29 16:10:00,53.0,42.3,30.21,East,80,6.0,6.0,67,0.00,CLR,,0.00,WeatherDisplay:10.37,2013-04-29 20:10:00,
2013-04-29 16:12:00,69.3,41.9,30.08,SE,135,5.8,5.8,37,0.00,CLR,,0.00,WeatherDisplay:10.37,2013-04-29 20:12:00,
2013-04-29 16:15:00,53.0,41.9,30.21,ENE,74,10.0,10.0,66,0.00,CLR,,0.00,WeatherDisplay:10.37,2013-04-29 20:15:00,
2013-04-29 16:17:00,68.9,41.5,30.08,South,180,8.3,8.3,37,0.00,CLR,,0.00,WeatherDisplay:10.37,2013-04-29 20:17:00,
2013-04-29 16:20:00,53.0,41.9,30.21,East,99,10.0,10.0,66,0.00,CLR,,0.00,WeatherDisplay:10.37,2013-04-29 20:20:00,
2013-04-29 16:22:00,69.1,41.0,30.08,South,180,6.3,6.3,36,0.00,CLR,,0.00,WeatherDisplay:10.37,2013-04-29 20:22:00,
2013-04-29 16:25:00,53.0,41.9,30.21,ESE,112,10.0,10.0,66,0.00,CLR,,0.00,WeatherDisplay:10.37,2013-04-29 20:25:00,
2013-04-29 16:27:00,70.2,41.3,30.09,South,180,5.8,5.8,35,0.00,CLR,,0.00,WeatherDisplay:10.37,2013-04-29 20:27:00,
2013-04-29 16:30:00,52.0,41.4,30.21,ESE,112,8.0,10.0,67,0.00,CLR,,0.00,WeatherDisplay:10.37,2013-04-29 20:30:00,
2013-04-29 16:32:00,69.6,40.7,30.09,South,180,6.9,6.9,35,0.00,CLR,,0.00,WeatherDisplay:10.37,2013-04-29 20:32:00,
2013-04-29 16:35:00,52.0,41.4,30.21,ESE,112,8.0,10.0,67,0.00,CLR,,0.00,WeatherDisplay:10.37,2013-04-29 20:35:00,
2013-04-29 16:37:00,69.1,40.3,30.09,West,270,9.2,9.2,35,0.00,CLR,,0.00,WeatherDisplay:10.37,2013-04-29 20:37:00,
2013-04-29 16:40:00,53.0,40.3,30.21,ESE,117,8.0,10.0,62,0.00,CLR,,0.00,WeatherDisplay:10.37,2013-04-29 20:40:00,
2013-04-29 16:42:00,69.8,40.9,30.09,SSE,158,6.9,6.9,35,0.00,CLR,,0.00,WeatherDisplay:10.37,2013-04-29 20:42:00,
2013-04-29 16:45:00,53.0,40.3,30.21,SE,128,8.0,9.0,62,0.00,CLR,,0.00,WeatherDisplay:10.37,2013-04-29 20:45:00,
2013-04-29 16:47:00,68.4,39.7,30.09,SSE,158,10.4,10.4,35,0.00,CLR,,0.00,WeatherDisplay:10.37,2013-04-29 20:47:00,
2013-04-29 16:50:00,53.0,40.3,30.21,SE,135,8.0,9.0,62,0.00,CLR,,0.00,WeatherDisplay:10.37,2013-04-29 20:50:00,
2013-04-29 16:52:00,68.9,40.1,30.09,ESE,112,8.1,8.1,35,0.00,CLR,,0.00,WeatherDisplay:10.37,2013-04-29 20:52:00,
2013-04-29 16:55:00,53.0,40.3,30.21,SE,135,8.0,8.0,62,0.00,CLR,,0.00,WeatherDisplay:10.37,2013-04-29 20:55:00,
2013-04-29 16:57:00,68.0,38.6,30.09,South,180,10.4,10.4,34,0.00,CLR,,0.00,WeatherDisplay:10.37,2013-04-29 20:57:00,
2013-04-29 17:00:00,53.0,40.3,30.21,SE,135,8.0,8.0,62,0.00,CLR,,0.00,WeatherDisplay:10.37,2013-04-29 21:00:00,
2013-04-29 17:02:00,66.7,37.4,30.09,SSE,158,10.4,10.4,34,0.00,CLR,,0.00,WeatherDisplay:10.37,2013-04-29 21:02:00,
2013-04-29 17:05:00,54.0,39.5,30.21,ESE,113,9.0,9.0,58,0.00,CLR,,0.00,WeatherDisplay:10.37,2013-04-29 21:05:00,
2013-04-29 17:07:00,66.6,37.3,30.09,South,180,10.4,10.4,34,0.00,CLR,,0.00,WeatherDisplay:10.37,2013-04-29 21:07:00,
2013-04-29 17:10:00,54.0,39.5,30.21,ENE,78,9.0,9.0,58,0.00,CLR,,0.00,WeatherDisplay:10.37,2013-04-29 21:10:00,
2013-04-29 17:12:00,66.6,36.6,30.09,South,180,8.1,8.1,33,0.00,CLR,,0.00,WeatherDisplay:10.37,2013-04-29 21:12:00,
2013-04-29 17:15:00,53.0,38.6,30.21,ENE,72,9.0,9.0,58,0.00,CLR,,0.00,WeatherDisplay:10.37,2013-04-29 21:15:00,
2013-04-29 17:17:00,66.2,36.2,30.09,West,270,10.4,10.4,33,0.00,CLR,,0.00,WeatherDisplay:10.37,2013-04-29 21:17:00,
2013-04-29 17:20:00,53.0,38.6,30.21,East,94,9.0,9.0,58,0.00,CLR,,0.00,WeatherDisplay:10.37,2013-04-29 21:20:00,
2013-04-29 17:22:00,66.7,36.7,30.09,South,180,5.8,5.8,33,0.00,CLR,,0.00,WeatherDisplay:10.37,2013-04-29 21:22:00,
2013-04-29 17:25:00,53.0,38.6,30.21,ESE,112,9.0,9.0,58,0.00,CLR,,0.00,WeatherDisplay:10.37,2013-04-29 21:25:00,
2013-04-29 17:27:00,66.6,35.8,30.09,South,180,7.8,7.8,32,0.00,CLR,,0.00,WeatherDisplay:10.37,2013-04-29 21:27:00,
2013-04-29 17:30:00,53.0,38.2,30.21,SE,127,7.0,8.0,57,0.00,CLR,,0.00,WeatherDisplay:10.37,2013-04-29 21:30:00,
2013-04-29 17:32:00,66.4,35.6,30.09,ENE,68,5.8,5.8,32,0.00,CLR,,0.00,WeatherDisplay:10.37,2013-04-29 21:32:00,
2013-04-29 17:35:00,53.0,38.2,30.21,SSE,153,7.0,7.0,57,0.00,CLR,,0.00,WeatherDisplay:10.37,2013-04-29 21:35:00,
2013-04-29 17:37:00,65.7,35.8,30.09,NE,45,5.8,5.8,33,0.00,CLR,,0.00,WeatherDisplay:10.37,2013-04-29 21:37:00,
2013-04-29 17:40:00,54.0,39.1,30.21,SE,142,9.0,9.0,57,0.00,CLR,,0.00,WeatherDisplay:10.37,2013-04-29 21:40:00,
2013-04-29 17:42:00,66.0,36.1,30.09,WSW,248,4.7,4.7,33,0.00,CLR,,0.00,WeatherDisplay:10.37,2013-04-29 21:42:00,
2013-04-29 17:45:00,54.0,39.1,30.21,ESE,104,9.0,9.0,57,0.00,CLR,,0.00,WeatherDisplay:10.37,2013-04-29 21:45:00,
2013-04-29 17:47:00,66.6,35.8,30.09,South,180,6.8,6.8,32,0.00,CLR,,0.00,WeatherDisplay:10.37,2013-04-29 21:47:00,
2013-04-29 17:50:00,54.0,39.1,30.21,East,90,9.0,9.0,57,0.00,CLR,,0.00,WeatherDisplay:10.37,2013-04-29 21:50:00,
2013-04-29 17:52:00,64.6,34.8,30.09,SE,135,9.2,9.2,33,0.00,CLR,,0.00,WeatherDisplay:10.37,2013-04-29 21:52:00,
2013-04-29 17:55:00,54.0,38.6,30.21,East,83,5.0,5.0,56,0.00,CLR,,0.00,WeatherDisplay:10.37,2013-04-29 21:55:00,
2013-04-29 17:58:00,64.6,34.8,30.09,South,180,5.8,5.8,33,0.00,CLR,,0.00,WeatherDisplay:10.37,2013-04-29 21:58:00,
2013-04-29 18:00:00,54.0,38.6,30.21,ENE,68,5.0,5.0,56,0.00,CLR,,0.00,WeatherDisplay:10.37,2013-04-29 22:00:00,
2013-04-29 18:03:00,63.7,34.8,30.09,SSE,158,10.4,10.4,34,0.00,CLR,,0.00,WeatherDisplay:10.37,2013-04-29 22:03:00,
2013-04-29 18:05:00,55.0,38.6,30.21,ENE,78,3.0,7.0,54,0.00,CLR,,0.00,WeatherDisplay:10.37,2013-04-29 22:05:00,
2013-04-29 18:08:00,63.7,34.8,30.09,South,180,4.7,4.7,34,0.00,CLR,,0.00,WeatherDisplay:10.37,2013-04-29 22:08:00,
2013-04-29 18:10:00,55.0,38.6,30.21,East,101,3.0,7.0,54,0.00,CLR,,0.00,WeatherDisplay:10.37,2013-04-29 22:10:00,
2013-04-29 18:13:00,63.5,34.6,30.09,SE,135,5.8,5.8,34,0.00,CLR,,0.00,WeatherDisplay:10.37,2013-04-29 22:13:00,
2013-04-29 18:15:00,55.0,39.1,30.21,ESE,112,5.0,7.0,55,0.00,CLR,,0.00,WeatherDisplay:10.37,2013-04-29 22:15:00,
2013-04-29 18:18:00,63.1,34.3,30.09,South,180,5.8,5.8,34,0.00,CLR,,0.00,WeatherDisplay:10.37,2013-04-29 22:18:00,
2013-04-29 18:20:00,55.0,39.1,30.21,ESE,112,5.0,5.0,55,0.00,CLR,,0.00,WeatherDisplay:10.37,2013-04-29 22:20:00,
2013-04-29 18:23:00,63.1,34.3,30.09,ENE,68,5.8,5.8,34,0.00,CLR,,0.00,WeatherDisplay:10.37,2013-04-29 22:23:00,
2013-04-29 18:25:00,55.0,39.1,30.21,ESE,112,5.0,5.0,55,0.00,CLR,,0.00,WeatherDisplay:10.37,2013-04-29 22:25:00,
2013-04-29 18:28:00,62.8,34.0,30.09,South,180,6.9,6.9,34,0.00,CLR,,0.00,WeatherDisplay:10.37,2013-04-29 22:28:00,
2013-04-29 18:30:00,56.0,38.1,30.21,ESE,112,7.0,11.0,51,0.00,CLR,,0.00,WeatherDisplay:10.37,2013-04-29 22:30:00,
2013-04-29 18:33:00,62.8,34.0,30.09,ESE,112,3.5,3.5,34,0.00,CLR,,0.00,WeatherDisplay:10.37,2013-04-29 22:33:00,
2013-04-29 18:35:00,56.0,38.1,30.21,ESE,112,7.0,11.0,51,0.00,CLR,,0.00,WeatherDisplay:10.37,2013-04-29 22:35:00,
2013-04-29 18:38:00,62.8,34.0,30.10,ESE,112,4.6,4.6,34,0.00,CLR,,0.00,WeatherDisplay:10.37,2013-04-29 22:38:00,
2013-04-29 18:40:00,56.0,37.6,30.21,ESE,120,6.0,11.0,50,0.00,CLR,,0.00,WeatherDisplay:10.37,2013-04-29 22:40:00,
2013-04-29 18:43:00,62.6,33.8,30.10,South,180,4.6,4.6,34,0.00,CLR,,0.00,WeatherDisplay:10.37,2013-04-29 22:43:00,
2013-04-29 18:45:00,56.0,37.6,30.21,SE,143,6.0,6.0,50,0.00,CLR,,0.00,WeatherDisplay:10.37,2013-04-29 22:45:00,
2013-04-29 18:48:00,62.4,34.4,30.10,South,180,3.7,3.7,35,0.00,CLR,,0.00,WeatherDisplay:10.37,2013-04-29 22:48:00,
2013-04-29 18:50:00,56.0,37.6,30.21,SSE,158,6.0,6.0,50,0.00,CLR,,0.00,WeatherDisplay:10.37,2013-04-29 22:50:00,
2013-04-29 18:53:00,62.2,33.5,30.10,SSE,158,5.8,5.8,34,0.00,CLR,,0.00,WeatherDisplay:10.37,2013-04-29 22:53:00,
2013-04-29 18:55:00,55.0,35.7,30.21,ESE,121,7.0,7.0,48,0.00,CLR,,0.00,WeatherDisplay:10.37,2013-04-29 22:55:00,
2013-04-29 18:58:00,62.1,34.1,30.10,ESE,112,4.6,4.6,35,0.00,CLR,,0.00,WeatherDisplay:10.37,2013-04-29 22:58:00,
2013-04-29 19:00:00,55.0,35.7,30.21,East,90,7.0,7.0,48,0.00,CLR,,0.00,WeatherDisplay:10.37,2013-04-29 23:00:00,
2013-04-29 19:03:00,61.9,33.9,30.10,SSE,158,5.8,5.8,35,0.00,CLR,,0.00,WeatherDisplay:10.37,2013-04-29 23:03:00,
2013-04-29 19:05:00,56.0,36.0,30.21,East,96,7.0,12.0,47,0.00,CLR,,0.00,WeatherDisplay:10.37,2013-04-29 23:05:00,
2013-04-29 19:08:00,61.7,34.5,30.10,SE,135,1.7,1.7,36,0.00,CLR,,0.00,WeatherDisplay:10.37,2013-04-29 23:08:00,
2013-04-29 19:10:00,56.0,36.0,30.21,ESE,107,7.0,12.0,47,0.00,CLR,,0.00,WeatherDisplay:10.37,2013-04-29 23:10:00,
2013-04-29 19:13:00,61.5,35.0,30.10,SSE,158,3.5,3.5,37,0.00,CLR,,0.00,WeatherDisplay:10.37,2013-04-29 23:13:00,
2013-04-29 19:15:00,57.0,33.5,30.21,ESE,112,8.0,12.0,41,0.00,CLR,,0.00,WeatherDisplay:10.37,2013-04-29 23:15:00,
2013-04-29 19:18:00,61.2,34.7,30.10,South,180,2.3,2.3,37,0.00,CLR,,0.00,WeatherDisplay:10.37,2013-04-29 23:18:00,
2013-04-29 19:20:00,57.0,33.5,30.21,ESE,112,8.0,8.0,41,0.00,CLR,,0.00,WeatherDisplay:10.37,2013-04-29 23:20:00,
2013-04-29 19:23:00,60.8,34.3,30.10,SSE,158,1.2,1.3,37,0.00,CLR,,0.00,WeatherDisplay:10.37,2013-04-29 23:23:00,
2013-04-29 19:25:00,57.0,33.5,30.21,ESE,112,8.0,8.0,41,0.00,CLR,,0.00,WeatherDisplay:10.37,2013-04-29 23:25:00,
2013-04-29 19:28:00,60.4,34.7,30.10,NE,45,1.2,1.2,38,0.00,CLR,,0.00,WeatherDisplay:10.37,2013-04-29 23:28:00,
2013-04-29 19:30:00,56.0,31.4,30.21,East,90,7.0,7.0,39,0.00,CLR,,0.00,WeatherDisplay:10.37,2013-04-29 23:30:00,
2013-04-29 19:33:00,60.3,35.2,30.10,ESE,112,0.0,0.0,39,0.00,CLR,,0.00,WeatherDisplay:10.37,2013-04-29 23:33:00,
2013-04-29 19:35:00,56.0,31.4,30.21,NE,52,7.0,7.0,39,0.00,CLR,,0.00,WeatherDisplay:10.37,2013-04-29 23:35:00,
2013-04-29 19:38:00,59.5,35.1,30.10,ESE,112,1.2,1.2,40,0.00,CLR,,0.00,WeatherDisplay:10.37,2013-04-29 23:38:00,
2013-04-29 19:40:00,57.0,33.5,30.21,NNE,33,6.0,6.0,41,0.00,CLR,,0.00,WeatherDisplay:10.37,2013-04-29 23:40:00,
2013-04-29 19:43:00,59.2,35.5,30.10,SE,135,0.0,0.0,41,0.00,CLR,,0.00,WeatherDisplay:10.37,2013-04-29 23:43:00,
2013-04-29 19:45:00,57.0,33.5,30.21,NW,322,6.0,6.0,41,0.00,CLR,,0.00,WeatherDisplay:10.37,2013-04-29 23:45:00,
2013-04-29 19:48:00,58.6,35.0,30.10,South,180,0.0,0.0,41,0.00,CLR,,0.00,WeatherDisplay:10.37,2013-04-29 23:48:00,
2013-04-29 19:50:00,57.0,33.5,30.21,WNW,292,6.0,6.0,41,0.00,CLR,,0.00,WeatherDisplay:10.37,2013-04-29 23:50:00,
2013-04-29 19:53:00,58.3,35.9,30.11,West,270,0.0,0.0,43,0.00,CLR,,0.00,WeatherDisplay:10.37,2013-04-29 23:53:00,
2013-04-29 19:55:00,57.0,32.9,30.21,ESE,112,6.0,6.0,40,0.00,CLR,,0.00,WeatherDisplay:10.37,2013-04-29 23:55:00,
2013-04-29 19:58:00,57.9,35.5,30.11,South,180,1.7,1.7,43,0.00,CLR,,0.00,WeatherDisplay:10.37,2013-04-29 23:58:00,
2013-04-29 20:00:00,57.0,32.9,30.21,ESE,112,6.0,6.0,40,0.00,CLR,,0.00,WeatherDisplay:10.37,2013-04-30 00:00:00,
2013-04-29 20:03:00,57.6,34.7,30.11,SE,135,1.2,1.2,42,0.00,CLR,,0.00,WeatherDisplay:10.37,2013-04-30 00:03:00,
2013-04-29 20:05:00,57.0,35.3,30.21,ESE,112,8.0,8.0,44,0.00,CLR,,0.00,WeatherDisplay:10.37,2013-04-30 00:05:00,
2013-04-29 20:08:00,58.3,34.7,30.11,SSE,158,3.5,3.5,41,0.00,CLR,,0.00,WeatherDisplay:10.37,2013-04-30 00:08:00,
2013-04-29 20:10:00,57.0,35.3,30.21,ESE,112,8.0,8.0,44,0.00,CLR,,0.00,WeatherDisplay:10.37,2013-04-30 00:10:00,
2013-04-29 20:13:00,57.6,34.1,30.11,WNW,292,1.2,0.0,41,0.00,CLR,,0.00,WeatherDisplay:10.37,2013-04-30 00:13:00,
2013-04-29 20:15:00,58.0,35.0,30.21,ESE,112,6.0,9.0,42,0.00,CLR,,0.00,WeatherDisplay:10.37,2013-04-30 00:15:00,
2013-04-29 20:18:00,57.7,32.9,30.12,South,180,2.3,2.3,39,0.00,CLR,,0.00,WeatherDisplay:10.37,2013-04-30 00:18:00,
2013-04-29 20:20:00,58.0,35.0,30.21,ESE,112,6.0,9.0,42,0.00,CLR,,0.00,WeatherDisplay:10.37,2013-04-30 00:20:00,
2013-04-29 20:23:00,58.3,32.8,30.12,NW,315,2.3,2.3,38,0.00,CLR,,0.00,WeatherDisplay:10.37,2013-04-30 00:23:00,
2013-04-29 20:25:00,58.0,35.0,30.21,ESE,112,6.0,9.0,42,0.00,CLR,,0.00,WeatherDisplay:10.37,2013-04-30 00:25:00,
2013-04-29 20:28:00,57.7,32.2,30.12,SSE,158,1.2,1.2,38,0.00,CLR,,0.00,WeatherDisplay:10.37,2013-04-30 00:28:00,
2013-04-29 20:30:00,56.0,33.2,30.21,SE,124,9.0,13.0,42,0.00,CLR,,0.00,WeatherDisplay:10.37,2013-04-30 00:30:00,
2013-04-29 20:33:00,57.4,32.6,30.12,NE,45,1.2,1.3,39,0.00,CLR,,0.00,WeatherDisplay:10.37,2013-04-30 00:33:00,
2013-04-29 20:35:00,56.0,33.2,30.21,SE,134,9.0,13.0,42,0.00,CLR,,0.00,WeatherDisplay:10.37,2013-04-30 00:35:00,
2013-04-29 20:38:00,57.6,32.2,30.13,NE,45,2.3,2.3,38,0.00,CLR,,0.00,WeatherDisplay:10.37,2013-04-30 00:38:00,
2013-04-29 20:40:00,57.0,34.7,30.18,SE,127,6.0,13.0,43,0.00,CLR,,0.00,WeatherDisplay:10.37,2013-04-30 00:40:00,
2013-04-29 20:43:00,57.2,31.8,30.13,SSE,158,2.3,2.3,38,0.00,CLR,,0.00,WeatherDisplay:10.37,2013-04-30 00:43:00,
2013-04-29 20:45:00,57.0,34.7,30.18,East,93,6.0,8.0,43,0.00,CLR,,0.00,WeatherDisplay:10.37,2013-04-30 00:45:00,
2013-04-29 20:48:00,57.2,31.8,30.13,West,270,3.7,3.7,38,0.00,CLR,,0.00,WeatherDisplay:10.37,2013-04-30 00:48:00,
2013-04-29 20:50:00,57.0,34.7,30.18,ENE,68,6.0,8.0,43,0.00,CLR,,0.00,WeatherDisplay:10.37,2013-04-30 00:50:00,
2013-04-29 20:53:00,57.4,32.0,30.13,SSE,158,2.3,2.3,38,0.00,CLR,,0.00,WeatherDisplay:10.37,2013-04-30 00:53:00,
2013-04-29 20:55:00,56.0,35.5,30.18,East,93,7.0,12.0,46,0.00,CLR,,0.00,WeatherDisplay:10.37,2013-04-30 00:55:00,
2013-04-29 20:58:00,57.0,31.6,30.13,West,270,0.0,0.0,38,0.00,CLR,,0.00,WeatherDisplay:10.37,2013-04-30 00:58:00,
2013-04-29 21:00:00,56.0,35.5,30.18,ESE,112,7.0,12.0,46,0.00,CLR,,0.00,WeatherDisplay:10.37,2013-04-30 01:00:00,
2013-04-29 21:03:00,56.8,31.4,30.14,West,270,0.0,0.0,38,0.00,CLR,,0.00,WeatherDisplay:10.37,2013-04-30 01:03:00,
2013-04-29 21:05:00,56.0,35.5,30.18,ESE,112,6.0,12.0,46,0.00,CLR,,0.00,WeatherDisplay:10.37,2013-04-30 01:05:00,
2013-04-29 21:08:00,56.5,31.8,30.14,SSE,158,0.0,0.0,39,0.00,CLR,,0.00,WeatherDisplay:10.37,2013-04-30 01:08:00,
2013-04-29 21:10:00,56.0,35.5,30.18,ESE,112,6.0,10.0,46,0.00,CLR,,0.00,WeatherDisplay:10.37,2013-04-30 01:10:00,
2013-04-29 21:13:00,55.9,31.3,30.14,WSW,248,0.0,0.0,39,0.00,CLR,,0.00,WeatherDisplay:10.37,2013-04-30 01:13:00,
2013-04-29 21:15:00,56.0,36.0,30.18,ESE,112,7.0,10.0,47,0.00,CLR,,0.00,WeatherDisplay:10.37,2013-04-30 01:15:00,
2013-04-29 21:18:00,55.6,31.0,30.14,West,270,0.0,0.0,39,0.00,CLR,,0.00,WeatherDisplay:10.37,2013-04-30 01:18:00,
2013-04-29 21:20:00,56.0,36.0,30.18,ESE,112,7.0,7.0,47,0.00,CLR,,0.00,WeatherDisplay:10.37,2013-04-30 01:20:00,
2013-04-29 21:23:00,55.2,31.3,30.14,West,270,0.0,0.0,40,0.00,CLR,,0.00,WeatherDisplay:10.37,2013-04-30 01:23:00,
2013-04-29 21:25:00,56.0,36.0,30.18,ESE,112,7.0,7.0,47,0.00,CLR,,0.00,WeatherDisplay:10.37,2013-04-30 01:25:00,
2013-04-29 21:28:00,55.2,31.3,30.14,West,270,2.3,2.3,40,0.00,CLR,,0.00,WeatherDisplay:10.37,2013-04-30 01:28:00,
2013-04-29 21:30:00,55.0,34.6,30.18,SE,129,7.0,8.0,46,0.00,CLR,,0.00,WeatherDisplay:10.37,2013-04-30 01:30:00,
2013-04-29 21:33:00,55.2,31.3,30.14,WSW,248,0.0,0.0,40,0.00,CLR,,0.00,WeatherDisplay:10.37,2013-04-30 01:33:00,
2013-04-29 21:35:00,55.0,34.6,30.18,SSE,154,7.0,8.0,46,0.00,CLR,,0.00,WeatherDisplay:10.37,2013-04-30 01:35:00,
2013-04-29 21:38:00,54.9,31.0,30.14,West,270,0.0,0.0,40,0.00,CLR,,0.00,WeatherDisplay:10.37,2013-04-30 01:38:00,
2013-04-29 21:40:00,56.0,35.5,30.18,SSE,153,7.0,9.0,46,0.00,CLR,,0.00,WeatherDisplay:10.37,2013-04-30 01:40:00,
2013-04-29 21:45:00,56.0,35.5,30.18,SE,142,7.0,9.0,46,0.00,CLR,,0.00,WeatherDisplay:10.37,2013-04-30 01:45:00,
2013-04-29 21:50:00,56.0,35.5,30.18,SE,135,7.0,9.0,46,0.00,CLR,,0.00,WeatherDisplay:10.37,2013-04-30 01:50:00,
2013-04-29 21:55:00,57.0,35.9,30.18,SE,125,6.0,9.0,45,0.00,CLR,,0.00,WeatherDisplay:10.37,2013-04-30 01:55:00,
2013-04-29 22:00:00,57.0,35.9,30.18,ESE,112,6.0,9.0,45,0.00,CLR,,0.00,WeatherDisplay:10.37,2013-04-30 02:00:00,
2013-04-29 22:05:00,56.0,34.9,30.18,SE,134,7.0,9.0,45,0.00,CLR,,0.00,WeatherDisplay:10.37,2013-04-30 02:05:00,
2013-04-29 22:10:00,56.0,34.9,30.18,South,170,7.0,7.0,45,0.00,CLR,,0.00,WeatherDisplay:10.37,2013-04-30 02:10:00,
2013-04-29 22:15:00,56.0,35.5,30.18,South,174,7.0,7.0,46,0.00,CLR,,0.00,WeatherDisplay:10.37,2013-04-30 02:15:00,
2013-04-29 22:20:00,56.0,35.5,30.18,SE,137,7.0,7.0,46,0.00,CLR,,0.00,WeatherDisplay:10.37,2013-04-30 02:20:00,
2013-04-29 22:25:00,56.0,35.5,30.18,ESE,112,7.0,7.0,46,0.00,CLR,,0.00,WeatherDisplay:10.37,2013-04-30 02:25:00,
2013-04-29 22:30:00,56.0,34.9,30.15,SE,129,7.0,8.0,45,0.00,CLR,,0.00,WeatherDisplay:10.37,2013-04-30 02:30:00,
2013-04-29 22:35:00,56.0,34.9,30.15,SSE,153,7.0,8.0,45,0.00,CLR,,0.00,WeatherDisplay:10.37,2013-04-30 02:35:00,
2013-04-29 22:40:00,56.0,34.4,30.15,SE,144,8.0,8.0,44,0.00,CLR,,0.00,WeatherDisplay:10.37,2013-04-30 02:40:00,
2013-04-29 22:45:00,56.0,34.4,30.15,ESE,106,8.0,8.0,44,0.00,CLR,,0.00,WeatherDisplay:10.37,2013-04-30 02:45:00,
2013-04-29 22:50:00,56.0,34.4,30.15,East,90,8.0,8.0,44,0.00,CLR,,0.00,WeatherDisplay:10.37,2013-04-30 02:50:00,
2013-04-29 22:55:00,57.0,35.3,30.15,East,100,7.0,7.0,44,0.00,CLR,,0.00,WeatherDisplay:10.37,2013-04-30 02:55:00,
2013-04-29 23:00:00,57.0,35.3,30.15,ESE,112,7.0,7.0,44,0.00,CLR,,0.00,WeatherDisplay:10.37,2013-04-30 03:00:00,
2013-04-29 23:05:00,56.0,32.0,30.15,ESE,119,7.0,9.0,40,0.00,CLR,,0.00,WeatherDisplay:10.37,2013-04-30 03:05:00,
2013-04-29 23:10:00,56.0,32.0,30.15,SE,130,7.0,9.0,40,0.00,CLR,,0.00,WeatherDisplay:10.37,2013-04-30 03:10:00,
2013-04-29 23:15:00,55.0,31.7,30.15,SE,132,9.0,9.0,41,0.00,CLR,,0.00,WeatherDisplay:10.37,2013-04-30 03:15:00,
2013-04-29 23:20:00,55.0,31.7,30.15,ESE,120,9.0,9.0,41,0.00,CLR,,0.00,WeatherDisplay:10.37,2013-04-30 03:20:00,
2013-04-29 23:25:00,55.0,31.7,30.15,ESE,112,9.0,9.0,41,0.00,CLR,,0.00,WeatherDisplay:10.37,2013-04-30 03:25:00,
2013-04-29 23:30:00,54.0,33.1,30.15,ESE,112,6.0,9.0,45,0.00,CLR,,0.00,WeatherDisplay:10.37,2013-04-30 03:30:00,
2013-04-29 23:35:00,54.0,33.1,30.15,ESE,112,6.0,6.0,45,0.00,CLR,,0.00,WeatherDisplay:10.37,2013-04-30 03:35:00,
2013-04-29 23:40:00,53.0,34.3,30.15,ESE,112,6.0,7.0,49,0.00,CLR,,0.00,WeatherDisplay:10.37,2013-04-30 03:40:00,
2013-04-29 23:45:00,53.0,34.3,30.15,ESE,112,6.0,7.0,49,0.00,CLR,,0.00,WeatherDisplay:10.37,2013-04-30 03:45:00,
2013-04-29 23:50:00,53.0,34.3,30.15,ESE,112,6.0,7.0,49,0.00,CLR,,0.00,WeatherDisplay:10.37,2013-04-30 03:50:00,
2013-04-29 23:55:00,53.0,35.3,30.15,SSE,148,7.0,7.0,51,0.00,CLR,,0.00,WeatherDisplay:10.37,2013-04-30 03:55:00,